Terminal Aerodrome Forecast
Issued by NWS Pittsburgh, PA

Current Version | Previous Version | Graphics & Text | Print | Product List | Glossary On
Versions: 1 2 3 4 5 6 7 8 9 10 11 12 13 14 15 16 17 18 19 20 21 22 23 24 25 26 27 28 29 30 31
000
FTUS41 KPBZ 020816 AAA
TAFPIT
TAF AMD
KPIT 020816Z 0208/0312 01006KT P6SM OVC010
     FM021700 06008KT P6SM BKN025
     FM022000 VRB06KT P6SM BKN080
     FM030500 VRB05KT P6SM OVC025=

USA.gov is the U.S. government's official web portal to all federal, state and local government web resources and services.